Météo par heure à Aahalden

Ce jour, 14 Avril, Mercredi

Heure Température Précipitation Vent Pression Humidité
00:00 -2°C° 0 mm 1 m/s 717 mmHg 84%
01:00 -3°C° 0 mm 1 m/s 717 mmHg 87%
02:00 -3°C° 0 mm 1 m/s 716 mmHg 87%
03:00 -4°C° 0 mm 1 m/s 716 mmHg 88%
04:00 -4°C° 0 mm 1 m/s 716 mmHg 88%
05:00 -3°C° 0 mm 1 m/s 716 mmHg 84%
06:00 -3°C° 0 mm 1 m/s 716 mmHg 81%
07:00 -2°C° 0 mm 1 m/s 716 mmHg 78%
08:00 0°C° 0 mm 1 m/s 715 mmHg 70%
09:00 +2°C° 0 mm 2 m/s 715 mmHg 62%
10:00 +3°C° 0 mm 3 m/s 715 mmHg 54%
11:00 +4°C° 0 mm 3 m/s 715 mmHg 50%
12:00 +5°C° 0 mm 3 m/s 714 mmHg 47%
13:00 +7°C° 0 mm 3 m/s 714 mmHg 43%
14:00 +7°C° 0 mm 3 m/s 714 mmHg 44%
15:00 +7°C° 0 mm 3 m/s 714 mmHg 44%
16:00 +7°C° 0 mm 3 m/s 713 mmHg 44%
17:00 +5°C° 0 mm 2 m/s 713 mmHg 53%
18:00 +4°C° 0 mm 2 m/s 714 mmHg 62%
19:00 +2°C° 0 mm 2 m/s 714 mmHg 71%
20:00 +1°C° 0 mm 2 m/s 714 mmHg 76%
21:00 +1°C° 0 mm 1 m/s 714 mmHg 82%
22:00 0°C° 0 mm 1 m/s 714 mmHg 87%
23:00 -1°C° 0 mm 1 m/s 714 mmHg 88%

Demain, 15 Avril, Jeudi

Heure Température Précipitation Vent Pression Humidité
00:00 -2°C° 0 mm 1 m/s 714 mmHg 90%
01:00 -2°C° 0 mm 1 m/s 714 mmHg 91%
02:00 -3°C° 0 mm 1 m/s 714 mmHg 92%
03:00 -3°C° 0 mm 1 m/s 714 mmHg 92%
04:00 -3°C° 0 mm 1 m/s 714 mmHg 92%
05:00 -2°C° 0 mm 1 m/s 714 mmHg 89%
06:00 -3°C° 0 mm 0 m/s 714 mmHg 85%
07:00 -2°C° 0 mm 0 m/s 714 mmHg 82%
08:00 +1°C° 0 mm 1 m/s 714 mmHg 74%
09:00 +2°C° 0 mm 2 m/s 714 mmHg 66%
10:00 +4°C° 0 mm 2 m/s 714 mmHg 59%
11:00 +4°C° 0.1 mm 3 m/s 714 mmHg 55%
12:00 +5°C° 0.1 mm 3 m/s 713 mmHg 51%
13:00 +7°C° 0.1 mm 3 m/s 713 mmHg 47%
14:00 +7°C° 0.1 mm 3 m/s 713 mmHg 47%
15:00 +7°C° 0.1 mm 3 m/s 712 mmHg 47%
16:00 +7°C° 0.1 mm 3 m/s 712 mmHg 47%
17:00 +4°C° 0.1 mm 3 m/s 712 mmHg 54%
18:00 +4°C° 0.1 mm 2 m/s 712 mmHg 62%
19:00 +2°C° 0.1 mm 2 m/s 712 mmHg 69%
20:00 +1°C° 0 mm 2 m/s 712 mmHg 74%
21:00 -1°C° 0 mm 2 m/s 712 mmHg 78%
22:00 -2°C° 0 mm 2 m/s 713 mmHg 83%
23:00 0°C° 0 mm 1 m/s 712 mmHg 83%

Après-demain, 16 Avril, Vendredi

Heure Température Précipitation Vent Pression Humidité
00:00 -1°C° 0 mm 1 m/s 712 mmHg 84%
01:00 -1°C° 0 mm 1 m/s 712 mmHg 85%
02:00 -2°C° 0 mm 1 m/s 712 mmHg 86%
03:00 -2°C° 0 mm 1 m/s 712 mmHg 87%
04:00 -3°C° 0 mm 1 m/s 712 mmHg 88%
05:00 -2°C° 0 mm 1 m/s 712 mmHg 85%
06:00 -1°C° 0 mm 1 m/s 712 mmHg 82%
07:00 -1°C° 0 mm 1 m/s 712 mmHg 79%
08:00 -1°C° 0 mm 2 m/s 712 mmHg 71%
09:00 +2°C° 0 mm 2 m/s 711 mmHg 64%
10:00 +4°C° 0 mm 3 m/s 711 mmHg 56%
11:00 +5°C° 0 mm 3 m/s 711 mmHg 53%
12:00 +7°C° 0 mm 3 m/s 711 mmHg 50%
13:00 +8°C° 0 mm 3 m/s 710 mmHg 47%
14:00 +9°C° 0.1 mm 3 m/s 710 mmHg 48%
15:00 +9°C° 0.1 mm 3 m/s 710 mmHg 48%
16:00 +9°C° 0.1 mm 3 m/s 709 mmHg 48%
17:00 +7°C° 0 mm 3 m/s 710 mmHg 55%
18:00 +5°C° 0 mm 3 m/s 710 mmHg 63%
19:00 +3°C° 0 mm 3 m/s 710 mmHg 70%
20:00 +2°C° 0 mm 3 m/s 711 mmHg 76%
21:00 +1°C° 0 mm 2 m/s 711 mmHg 83%
22:00 -1°C° 0 mm 2 m/s 711 mmHg 89%
23:00 0°C° 0 mm 1 m/s 711 mmHg 91%

17 Avril, Samedi

Heure Température Précipitation Vent Pression Humidité
00:00 -1°C° 0 mm 1 m/s 711 mmHg 92%
01:00 -1°C° 0 mm 1 m/s 711 mmHg 94%
02:00 -2°C° 0 mm 1 m/s 711 mmHg 94%
03:00 -2°C° 0 mm 1 m/s 711 mmHg 94%
04:00 -2°C° 0 mm 1 m/s 711 mmHg 94%
05:00 -1°C° 0 mm 1 m/s 711 mmHg 92%
06:00 0°C° 0 mm 1 m/s 711 mmHg 90%
07:00 +1°C° 0 mm 1 m/s 711 mmHg 87%
08:00 +2°C° 0 mm 1 m/s 711 mmHg 84%
09:00 +3°C° 0 mm 1 m/s 711 mmHg 80%
10:00 +3°C° 0 mm 2 m/s 711 mmHg 76%
11:00 +4°C° 0 mm 2 m/s 711 mmHg 74%
12:00 +4°C° 0 mm 2 m/s 711 mmHg 71%
13:00 +5°C° 0 mm 2 m/s 710 mmHg 69%
14:00 +5°C° 0.1 mm 2 m/s 710 mmHg 69%
15:00 +5°C° 0.1 mm 2 m/s 710 mmHg 70%
16:00 +6°C° 0.1 mm 2 m/s 710 mmHg 70%
17:00 +5°C° 0.1 mm 2 m/s 710 mmHg 77%
18:00 +5°C° 0.1 mm 1 m/s 710 mmHg 83%
19:00 +5°C° 0.1 mm 1 m/s 710 mmHg 89%
20:00 +4°C° 0.1 mm 1 m/s 710 mmHg 91%
21:00 +3°C° 0.1 mm 1 m/s 711 mmHg 93%
22:00 +2°C° 0.1 mm 0 m/s 711 mmHg 95%
23:00 +2°C° 0 mm 0 m/s 711 mmHg 95%

18 Avril, Dimanche

Heure Température Précipitation Vent Pression Humidité
00:00 +2°C° 0 mm 0 m/s 711 mmHg 95%
01:00 +2°C° 0 mm 0 m/s 711 mmHg 95%
02:00 +2°C° 0 mm 0 m/s 711 mmHg 96%
03:00 +2°C° 0 mm 0 m/s 711 mmHg 97%
04:00 +2°C° 0 mm 0 m/s 711 mmHg 97%
05:00 +2°C° 0.1 mm 0 m/s 711 mmHg 97%
06:00 +2°C° 0.1 mm 0 m/s 711 mmHg 97%
07:00 +2°C° 0.1 mm 0 m/s 711 mmHg 96%
08:00 +3°C° 0.1 mm 0 m/s 711 mmHg 94%
09:00 +4°C° 0.1 mm 1 m/s 711 mmHg 92%
10:00 +5°C° 0.1 mm 1 m/s 711 mmHg 90%
11:00 +5°C° 0.1 mm 1 m/s 711 mmHg 85%
12:00 +6°C° 0.1 mm 1 m/s 711 mmHg 81%
13:00 +7°C° 0.1 mm 1 m/s 711 mmHg 76%
14:00 +7°C° 0.1 mm 1 m/s 711 mmHg 73%
15:00 +8°C° 0.1 mm 1 m/s 711 mmHg 69%
16:00 +8°C° 0.1 mm 1 m/s 711 mmHg 66%
17:00 +6°C° 0 mm 0 m/s 711 mmHg 71%
18:00 +6°C° 0 mm 0 m/s 711 mmHg 76%
19:00 +5°C° 0 mm 0 m/s 711 mmHg 81%
20:00 +4°C° 0 mm 0 m/s 711 mmHg 84%
21:00 +4°C° 0 mm 1 m/s 711 mmHg 86%
22:00 +4°C° 0 mm 1 m/s 711 mmHg 89%
23:00 +3°C° 0 mm 1 m/s 711 mmHg 89%

19 Avril, Lundi

Heure Température Précipitation Vent Pression Humidité
00:00 +3°C° 0 mm 1 m/s 711 mmHg 90%
01:00 +2°C° 0 mm 1 m/s 711 mmHg 90%
02:00 +2°C° 0 mm 1 m/s 710 mmHg 90%
03:00 +2°C° 0 mm 1 m/s 710 mmHg 89%
04:00 +2°C° 0 mm 1 m/s 710 mmHg 89%
05:00 +2°C° 0.1 mm 0 m/s 710 mmHg 88%
06:00 +2°C° 0.1 mm 0 m/s 710 mmHg 88%
07:00 +3°C° 0.1 mm 0 m/s 709 mmHg 87%
08:00 +4°C° 0.1 mm 0 m/s 709 mmHg 86%
09:00 +6°C° 0.1 mm 1 m/s 709 mmHg 84%
10:00 +6°C° 0.1 mm 1 m/s 709 mmHg 82%
11:00 +7°C° 0.1 mm 1 m/s 709 mmHg 81%
12:00 +7°C° 0.1 mm 1 m/s 708 mmHg 80%
13:00 +8°C° 0.1 mm 1 m/s 708 mmHg 79%
14:00 +8°C° 0.1 mm 1 m/s 708 mmHg 76%
15:00 +9°C° 0.1 mm 1 m/s 707 mmHg 74%
16:00 +9°C° 0.1 mm 1 m/s 707 mmHg 72%
17:00 +8°C° 0 mm 1 m/s 707 mmHg 77%
18:00 +7°C° 0 mm 1 m/s 707 mmHg 81%
19:00 +5°C° 0 mm 0 m/s 707 mmHg 86%
20:00 +5°C° 0 mm 1 m/s 707 mmHg 88%
21:00 +4°C° 0 mm 1 m/s 707 mmHg 89%
22:00 +4°C° 0 mm 1 m/s 707 mmHg 90%
23:00 +4°C° 0 mm 1 m/s 707 mmHg 90%
Voir plus

Nous avons besoin de votre consentement

Meteoprog et ses fournisseurs de services peuvent stocker et accéder à des données personnelles telles que des cookies, des identifiants d'appareils ou d'autres technologies similaires sur votre appareil et traiter ces données pour personnaliser le contenu et les publicités, ainsi que pour fournir des fonctionnalités de médias sociaux et analyser le trafic.

  • Stocker et/ou accéder à des informations sur votre appareil

    Des cookies, des identifiants d'appareils ou d'autres informations peuvent être stockés ou accessibles sur votre appareil aux fins indiquées ci-dessus.

  • Annonces et contenus personnalisés, mesure des annonces et des contenus, connaissance de l'audience et développement de produits

    Les annonces et le contenu peuvent être personnalisés en fonction d'un profil. D'autres données peuvent être ajoutées pour mieux personnaliser les annonces et le contenu. Les performances des publicités et du contenu peuvent être mesurées. Il est possible d'obtenir des informations sur le public qui a vu les publicités et le contenu. Ces données peuvent être utilisées pour développer ou améliorer l'expérience de l'utilisateur, les systèmes et les logiciels.

En cliquant sur "J'accepte", vous autorisez l'utilisation de cookies, des identifiants d'appareils, des balises web ou d'autres technologies similaires. Vos paramètres peuvent être modifiés dans le navigateur de votre appareil.

Dans certains cas, des intérêts légitimes peuvent être invoqués plutôt qu'un consentement. Vous pouvez en savoir plus à ce sujet dans notre Politique de confidentialité et de cookies.